When you browse on this site, cookies collect data to enhance your experience and personalize the content and advertising you see.
Visit our Privacy Policy to learn more. By continuing to use the site, you agree to this use of cookies and data.
  • In Switzerland
  • List of Countries
  • For 7 days
  • Water Temperature
  • Weather Map
  • Weather Widgets
  • user-avatar
    Login

    Hourly Weather Inverclyde

    Today, 10 April, Friday

    Time Temperature Precipitation Wind Pressure Humidity
    00:00 +8°C° 0 mm 1 mps 767 mmHg 92%
    01:00 +8°C° 0 mm 1 mps 766 mmHg 92%
    02:00 +7°C° 0 mm 1 mps 766 mmHg 93%
    03:00 +7°C° 0 mm 1 mps 766 mmHg 93%
    04:00 +8°C° 0 mm 1 mps 765 mmHg 92%
    05:00 +8°C° 0 mm 1 mps 765 mmHg 91%
    06:00 +8°C° 0 mm 1 mps 765 mmHg 90%
    07:00 +10°C° 0 mm 1 mps 765 mmHg 86%
    08:00 +11°C° 0 mm 1 mps 765 mmHg 81%
    09:00 +13°C° 0 mm 1 mps 765 mmHg 76%
    10:00 +15°C° 0 mm 1 mps 765 mmHg 72%
    11:00 +16°C° 0 mm 1 mps 764 mmHg 67%
    12:00 +19°C° 0 mm 1 mps 764 mmHg 63%
    13:00 +19°C° 0.1 mm 1 mps 764 mmHg 63%
    14:00 +18°C° 0.1 mm 2 mps 763 mmHg 64%
    15:00 +18°C° 0.1 mm 2 mps 763 mmHg 64%
    16:00 +17°C° 0.2 mm 2 mps 763 mmHg 70%
    17:00 +15°C° 0.2 mm 1 mps 763 mmHg 76%
    18:00 +14°C° 0.2 mm 1 mps 763 mmHg 82%
    19:00 +13°C° 0.1 mm 1 mps 763 mmHg 85%
    20:00 +13°C° 0.1 mm 1 mps 762 mmHg 87%
    21:00 +12°C° 0.1 mm 1 mps 762 mmHg 90%
    22:00 +12°C° 0 mm 1 mps 762 mmHg 90%
    23:00 +12°C° 0 mm 1 mps 762 mmHg 90%

    Tomorrow, 11 April, Saturday

    Time Temperature Precipitation Wind Pressure Humidity
    00:00 +12°C° 0 mm 1 mps 762 mmHg 91%
    01:00 +12°C° 0 mm 1 mps 762 mmHg 91%
    02:00 +12°C° 0 mm 2 mps 761 mmHg 92%
    03:00 +12°C° 0 mm 2 mps 761 mmHg 93%
    04:00 +12°C° 0.2 mm 2 mps 761 mmHg 93%
    05:00 +11°C° 0.2 mm 3 mps 761 mmHg 93%
    06:00 +11°C° 0.2 mm 3 mps 761 mmHg 93%
    07:00 +11°C° 0 mm 4 mps 761 mmHg 89%
    08:00 +12°C° 0 mm 4 mps 761 mmHg 85%
    09:00 +12°C° 0 mm 5 mps 761 mmHg 81%
    10:00 +12°C° 0 mm 5 mps 762 mmHg 76%
    11:00 +13°C° 0 mm 5 mps 762 mmHg 72%
    12:00 +13°C° 0 mm 5 mps 762 mmHg 67%
    13:00 +13°C° 0 mm 5 mps 762 mmHg 63%
    14:00 +13°C° 0 mm 5 mps 762 mmHg 59%
    15:00 +14°C° 0 mm 5 mps 762 mmHg 55%
    16:00 +13°C° 0 mm 4 mps 762 mmHg 59%
    17:00 +12°C° 0 mm 4 mps 761 mmHg 63%
    18:00 +12°C° 0 mm 4 mps 761 mmHg 67%
    19:00 +11°C° 0 mm 4 mps 761 mmHg 70%
    20:00 +11°C° 0 mm 4 mps 761 mmHg 74%
    21:00 +10°C° 0 mm 3 mps 761 mmHg 78%
    22:00 +10°C° 0 mm 3 mps 761 mmHg 81%
    23:00 +9°C° 0 mm 3 mps 761 mmHg 85%

    Day after tomorrow, 12 April, Sunday

    Time Temperature Precipitation Wind Pressure Humidity
    00:00 +9°C° 0 mm 2 mps 761 mmHg 88%
    01:00 +8°C° 0 mm 2 mps 760 mmHg 90%
    02:00 +8°C° 0 mm 2 mps 760 mmHg 91%
    03:00 +9°C° 0 mm 1 mps 759 mmHg 93%
    04:00 +9°C° 0 mm 1 mps 759 mmHg 92%
    05:00 +9°C° 0 mm 1 mps 759 mmHg 91%
    06:00 +9°C° 0 mm 1 mps 759 mmHg 91%
    07:00 +8°C° 0 mm 2 mps 759 mmHg 89%
    08:00 +8°C° 0 mm 3 mps 758 mmHg 87%
    09:00 +8°C° 0 mm 3 mps 758 mmHg 85%
    10:00 +7°C° 0.5 mm 4 mps 758 mmHg 85%
    11:00 +7°C° 0.5 mm 4 mps 759 mmHg 85%
    12:00 +6°C° 0.5 mm 4 mps 759 mmHg 85%
    13:00 +6°C° 1.2 mm 4 mps 759 mmHg 86%
    14:00 +6°C° 1.2 mm 4 mps 759 mmHg 87%
    15:00 +5°C° 1.2 mm 4 mps 759 mmHg 88%
    16:00 +6°C° 0.5 mm 4 mps 760 mmHg 87%
    17:00 +6°C° 0.5 mm 4 mps 760 mmHg 86%
    18:00 +6°C° 0.5 mm 4 mps 761 mmHg 84%
    19:00 +5°C° 0 mm 4 mps 762 mmHg 88%
    20:00 +5°C° 0 mm 4 mps 763 mmHg 91%
    21:00 +4°C° 0 mm 4 mps 764 mmHg 94%
    22:00 +4°C° 0 mm 4 mps 764 mmHg 92%
    23:00 +3°C° 0 mm 5 mps 765 mmHg 90%

    13 April, Monday

    Time Temperature Precipitation Wind Pressure Humidity
    00:00 +3°C° 0 mm 6 mps 766 mmHg 88%
    01:00 +2°C° 0 mm 5 mps 766 mmHg 86%
    02:00 +2°C° 0 mm 5 mps 766 mmHg 85%
    03:00 +1°C° 0 mm 5 mps 767 mmHg 83%
    04:00 +1°C° 0 mm 4 mps 767 mmHg 82%
    05:00 +1°C° 0 mm 4 mps 768 mmHg 81%
    06:00 +2°C° 0 mm 3 mps 768 mmHg 80%
    07:00 +3°C° 0 mm 4 mps 769 mmHg 77%
    08:00 +3°C° 0 mm 4 mps 769 mmHg 73%
    09:00 +4°C° 0 mm 4 mps 770 mmHg 69%
    10:00 +5°C° 0 mm 4 mps 770 mmHg 66%
    11:00 +6°C° 0 mm 4 mps 770 mmHg 63%
    12:00 +8°C° 0 mm 3 mps 771 mmHg 60%
    13:00 +8°C° 0 mm 3 mps 770 mmHg 59%
    14:00 +8°C° 0 mm 3 mps 770 mmHg 57%
    15:00 +8°C° 0 mm 3 mps 770 mmHg 56%
    16:00 +8°C° 0 mm 3 mps 770 mmHg 60%
    17:00 +7°C° 0 mm 3 mps 770 mmHg 63%
    18:00 +5°C° 0 mm 3 mps 770 mmHg 66%
    19:00 +5°C° 0 mm 2 mps 770 mmHg 73%
    20:00 +4°C° 0 mm 1 mps 770 mmHg 79%
    21:00 +3°C° 0 mm 1 mps 770 mmHg 85%
    22:00 +3°C° 0 mm 1 mps 769 mmHg 85%
    23:00 +2°C° 0 mm 0 mps 769 mmHg 85%

    14 April, Tuesday

    Time Temperature Precipitation Wind Pressure Humidity
    00:00 +2°C° 0 mm 0 mps 769 mmHg 84%
    01:00 +3°C° 0 mm 1 mps 769 mmHg 85%
    02:00 +3°C° 0 mm 1 mps 769 mmHg 86%
    03:00 +3°C° 0 mm 1 mps 768 mmHg 87%
    04:00 +3°C° 0 mm 1 mps 768 mmHg 86%
    05:00 +3°C° 0 mm 1 mps 768 mmHg 85%
    06:00 +4°C° 0 mm 1 mps 768 mmHg 84%
    07:00 +6°C° 0 mm 1 mps 768 mmHg 75%
    08:00 +8°C° 0 mm 1 mps 767 mmHg 66%
    09:00 +10°C° 0 mm 1 mps 767 mmHg 58%
    10:00 +11°C° 0 mm 1 mps 767 mmHg 52%
    11:00 +13°C° 0 mm 1 mps 766 mmHg 47%
    12:00 +14°C° 0 mm 1 mps 766 mmHg 41%
    13:00 +15°C° 0 mm 1 mps 766 mmHg 42%
    14:00 +15°C° 0 mm 1 mps 765 mmHg 42%
    15:00 +15°C° 0 mm 2 mps 765 mmHg 42%
    16:00 +14°C° 0 mm 2 mps 765 mmHg 49%
    17:00 +12°C° 0 mm 1 mps 764 mmHg 56%
    18:00 +11°C° 0 mm 1 mps 764 mmHg 64%
    19:00 +9°C° 0 mm 1 mps 764 mmHg 69%
    20:00 +8°C° 0 mm 1 mps 764 mmHg 74%
    21:00 +5°C° 0 mm 0 mps 764 mmHg 79%
    22:00 +6°C° 0 mm 1 mps 764 mmHg 79%
    23:00 +6°C° 0 mm 1 mps 764 mmHg 78%

    15 April, Wednesday

    Time Temperature Precipitation Wind Pressure Humidity
    00:00 +5°C° 0 mm 1 mps 764 mmHg 77%
    01:00 +5°C° 0 mm 1 mps 764 mmHg 77%
    02:00 +5°C° 0 mm 1 mps 764 mmHg 76%
    03:00 +5°C° 0 mm 1 mps 763 mmHg 76%
    04:00 +5°C° 0 mm 1 mps 763 mmHg 73%
    05:00 +5°C° 0 mm 1 mps 763 mmHg 71%
    06:00 +6°C° 0 mm 1 mps 763 mmHg 68%
    07:00 +8°C° 0 mm 1 mps 763 mmHg 61%
    08:00 +10°C° 0 mm 1 mps 763 mmHg 53%
    09:00 +12°C° 0 mm 0 mps 763 mmHg 46%
    10:00 +14°C° 0 mm 1 mps 762 mmHg 41%
    11:00 +15°C° 0 mm 1 mps 762 mmHg 36%
    12:00 +17°C° 0 mm 2 mps 762 mmHg 32%
    13:00 +16°C° 0 mm 2 mps 762 mmHg 33%
    14:00 +16°C° 0 mm 2 mps 762 mmHg 35%
    15:00 +16°C° 0 mm 2 mps 761 mmHg 37%
    16:00 +15°C° 0 mm 2 mps 761 mmHg 43%
    17:00 +14°C° 0 mm 1 mps 761 mmHg 50%
    18:00 +13°C° 0 mm 1 mps 761 mmHg 57%
    19:00 +11°C° 0 mm 1 mps 761 mmHg 60%
    20:00 +10°C° 0 mm 1 mps 762 mmHg 63%
    21:00 +8°C° 0 mm 0 mps 762 mmHg 66%
    22:00 +9°C° 0 mm 1 mps 762 mmHg 66%
    23:00 +8°C° 0 mm 1 mps 762 mmHg 67%
    Show more